Regional Weather Roundup
Issued by NWS Charleston, SC

Home | Current Version | Previous Version | Text Only | Print | Product List | Glossary On
Versions: 1 2 3 4 5 6 7 8 9 10 11 12 13 14 15 16 17 18 19 20 21 22 23 24 25 26 27 28 29 30 31 32 33 34 35 36 37 38 39 40 41 42 43 44 45 46 47 48 49 50
000
ASUS42 KCHS 271627
RWRCHS

REGIONAL WEATHER ROUNDUP
NATIONAL WEATHER SERVICE CHARLESTON SC
1200 PM EDT THU APR 27 2017

NOTE: "FAIR" INDICATES FEW OR NO CLOUDS BELOW 12,000 FEET WITH NO
SIGNIFICANT WEATHER AND/OR OBSTRUCTIONS TO VISIBILITY.

NOT ALL STATIONS ARE QUALITY CONTROLLED. USE DATA WITH CAUTION...
ESPECIALLY DEWPOINT OBSERVATIONS.

SCZ027-030-031-034>040-042>050-271700-
...SOUTHEAST SOUTH CAROLINA...

CITY           SKY/WX    TMP DP  RH WIND       PRES   REMARKS
N CHARLESTON   PTSUNNY   81  59  47 S18       29.94S
WATERFRONT PRK   N/A     76  64  66 S10       29.92F
JOHNS ISLAND   CLOUDY    79  68  69 S14G20    29.94F
PINOPOLIS        N/A     79  64  61 S7G14     29.86
MONCKS CORNER  PTSUNNY   79  61  53 S13       29.92F
SUMMERVILLE    FAIR      79  63  57 S10       29.93F
BEAUFORT MCAS  MOSUNNY   81  65  58 S13G25    29.92F
BEAUFORT ARPT  FAIR      79  66  65 S12G18    29.93S HAZE
HILTON HEAD IS MOSUNNY   79  72  78 S9        29.94F
WALTERBORO     MOSUNNY   81  63  54 S16       29.93S
ALLENDALE      FAIR      79  64  61 S8G15     29.90S

...SOUTHERN MIDLANDS AND PEE DEE...

CITY           SKY/WX    TMP DP  RH WIND       PRES   REMARKS
GEORGETOWN     PTSUNNY   79  61  53 S13G20    29.94F
KINGSTREE      CLOUDY    77  59  53 SE10G16   29.92F
ORANGEBURG     MOSUNNY   77  62  59 SW14      29.91S
BARNWELL       PTSUNNY   81  66  61 S10G18    29.90F
AIKEN          CLOUDY    72  64  78 S13G18    29.93F
MANNING        CLOUDY    75  63  64 SW21G26   29.92S
COLUMBIA       CLOUDY    76  64  66 S15       29.90R
SUMTER         CLOUDY    77  61  56 S13       29.89S
FLORENCE       MOSUNNY   79  60  52 SW15G21   29.91F
MYRTLE BEACH   MOSUNNY   79  66  65 SW16      29.94F
N MYRTLE BEACH SUNNY     77  67  71 S14       29.93F

$$

GAZ063-065-086>088-099>101-113>116-118-119-134>141-150-271700-
...SOUTHEAST GEORGIA...

CITY           SKY/WX    TMP DP  RH WIND       PRES   REMARKS
SAVANNAH ARPT  MOSUNNY   85  63  47 S16       29.91F
HUNTER AAF     MOSUNNY   82  67  62 S10       29.90S
FORT STEWART   SUNNY     83  63  51 S10G21    29.89F
STATESBORO     CLOUDY    83  63  50 S15G22    29.89F
SYLVANIA       CLOUDY   N/A N/A N/A SW7G17    29.90F
CLAXTON        FAIR      83  69  63 SE9G21    29.89F

...CSRA...CENTRAL AND FAR SOUTHEAST GEORGIA...

CITY           SKY/WX    TMP DP  RH WIND       PRES   REMARKS
THOMSON        CLOUDY    77  66  70 W7G20     29.92S
AUGUSTA-BUSH   CLOUDY    75  68  78 S10       29.88S
AUGUSTA-DANIEL CLOUDY    74  65  73 S15       29.90R
SWAINSBORO     FAIR      81  66  61 S12G18    29.90S
VIDALIA        SUNNY     82  64  54 S16G24    29.89S
EASTMAN        FAIR      85  55  36 S10       29.89F
HAZLEHURST     FAIR      84  67  57 S14G20    29.88F
ALMA           SUNNY     84  66  54 S15G21    29.91S
WAYCROSS       SUNNY     89  69  52 S16G22    29.91F HX  93
JESUP          FAIR      86  57  37 SW14G20   29.91F
BAXLEY         FAIR      86  70  58 S18G24    29.89F HX  90
BRUNSWICK      SUNNY     86  68  54 S13G20    29.93S
SAINT SIMONS   MOSUNNY   80  67  64 S10       29.94S

$$

SCZ027-028-034-036>038-045-046-048>050-GAZ119-141-271700-
...LAKE AND SUPPLEMENTAL COASTAL OBSERVATIONS...

STATION/POSITION TIME  TEMP    WIND        PRES    WAVE   SWELL
                       AIR SEA DIR/SP/G            HT/PER HT/PER/DIR
                 (UTC) (F)     (DEG/KT/KT) (MB)    (FT/S) (FT/S/D)
WINYAH BAY       NOT AVBL
LAKE MURRAY      1620   73     190/  9/ 13 1011.9
ACE BASIN NERRS  1445   78     170/  2     1014.0
FORT PULASKI     1600   77 74  200/  8/ 15 1013.7
SAPELO ISLAND    1500   80     170/ 13     1014.0

$$

ANZ835-935-AMZ111-154-330-350-352-354-370-450-454-472-271700-
...C-MAN AND BUOY OBSERVATIONS...

STATION/POSITION TIME  TEMP    WIND        PRES    WAVE   SWELL
                       AIR SEA DIR/SP/G            HT/PER HT/PER/DIR
                 (UTC) (F)     (DEG/KT/KT) (MB)    (FT/S) (FT/S/D)
BUOY 41004       1610   74 73  200/  4/  4 1014.3
BUOY 41008       1550   73 73  170/ 14/ 16 1013.4F   3/ 6   2/110/ 9
FOLLY BEACH CMAN 1600   74     180/  7/  8 1014.6F
CAPERS NEARSHORE 1608   75 73  190/  8/ 10 1013.9F
FRIPP NEARSHORE  1608   73 73  200/  8/ 12 1013.6F


STATION/POSITION TIME  TEMP    WIND        PRES    WAVE   SWELL
                       AIR SEA DIR/SP/G            HT/PER HT/PER/DIR
                 (UTC) (F)     (DEG/KT/KT) (MB)    (FT/S) (FT/S/D)
5E ST. MARYS GA  1600      73                N/A     3/ 9
FRYING PAN BUOY  1610   74 73  250/  6/  8 1014.6
BUOY 41025       1550   77 77  220/ 14/ 17 1014.9S   6/ 9   3/130/ 9
CAPE LOOKOUT NC  1600   74     230/  9/ 12 1014.7F
BUOY 41002       1550   74 74  180/ 14/ 17 1018.2R   5/ 8   3/110/ 8
BUOY 41010       1610   77 78  170/ 14/ 17 1016.5
ST AUGUSTINE FL  1600   74 75  140/ 15/ 16 1015.2F


$$



USA.gov is the U.S. government's official web portal to all federal, state and local government web resources and services.